Find Starlink 11552

NORAD ID: 62907 Int'l Des: 2025-027 Owner: SPXS Country: US Constellation: starlink operational
LEOCIRCULAR

リアルタイム位置

3D地球を読み込み中...

Starlink 11552について

説明を読み込み中...

次回通過

Passes for default location (London). Set your location on the main map for personalized predictions.

高度履歴

Loading altitude history...

軌道要素

1 62907U 25027A 26125.35988654 .00247510 00000-0 18703-2 0 9994
2 62907 43.0004 6.1846 0001484 35.6649 324.4317 15.70906706 72107
Epoch: May 5, 2026 • Age: 9 hours

現在のステータス

高度 364.1 km
速度 7.69 km/s
衛星直下点 -31.08°S, 163.43°W
打ち上げ日 Feb 8, 2025
運用期間 1.2 years
タイプ internet

技術仕様

分類 Payload
質量 960.00 kg
乾燥質量 910.00 kg
総質量 960.00 kg
長さ 0.30 m
直径 4.10 m
スパン 29.00 m
形状 Box + pan
製造者 SPXS
バスタイプ Starlink V2MD
フェーズステータス In Orbit
所有者/国 SPXS/US

Most Searched